Flag for Lesotho Weather past 2 weeks in Teyateyaneng, Lesotho

Now
37 °F

Sunny.


Feels Like: 37 °F
Forecast: 28 / 67 °F
Wind: No wind

Location: Bloemfontein Airport

Current Time: Jul 23, 2014 at 9:53:45 AM

Latest Report: Jul 23, 2014 at 8:00 AM


Visibility: 10 mi

Pressure: 30.33 "Hg

Humidity: 60%

Dew point: 25 °F

Location of TeyateyanengLocation

Historic Weather in Teyateyaneng — Graph

°F

Teyateyaneng temperature yesterday

Maximum temperature yesterday: 68 °F (at 4:00 PM)
Minimum temperature yesterday: 27 °F (at 3:00 AM)
Average temperature yesterday: 46 °F

Past Weeks' High & Low Weather Summary

 TemperatureHumidityPressure
High68 °F (Jul 16, 3:00 PM)86% (Jul 13, 2:00 AM)30.57 "Hg (Jul 13, 2:00 AM)
Low18 °F (Jul 10, 4:00 AM)8% (Jul 14, 5:00 PM)30.07 "Hg (Jul 17, 4:00 PM)
Average41 °F46%30.35 "Hg
* Reported Jul 8 7:00 AM — Jul 23 7:00 AM, Teyateyaneng, Weather by CustomWeather, © 2014

Note: Actual official high and low records may vary slightly from our data, if they occured in-between our weather recording intervals... More about our weather records

Advertising

Teyateyaneng weather history for previous 24 hours

 ConditionsComfort  
Time TempWeatherWind HumidityBarometerVisibility
7:00 AM
Jul 23
30 °FSunny.1 mph69%30.27 "Hg10 mi
6:00 AM30 °FClear.2 mph75%30.27 "Hg10 mi
5:00 AM32 °FClear.1 mph64%30.24 "Hg10 mi
4:00 AM34 °FChilly.2 mph65%30.24 "HgN/A
3:00 AM36 °FChilly.1 mph60%30.24 "HgN/A
2:00 AM37 °FChilly.2 mph56%30.24 "HgN/A
1:00 AM39 °FChilly.6 mph52%30.27 "HgN/A
7:00 PM
Jul 22
54 °FPassing clouds.6 mph35%30.24 "HgN/A
6:00 PM59 °FClear.7 mph31%30.24 "Hg10 mi
5:00 PM66 °FClear.8 mph22%30.24 "Hg10 mi
4:00 PM68 °FPassing clouds.9 mph24%30.24 "HgN/A
3:00 PM66 °FPassing clouds.12 mph28%30.27 "HgN/A
2:00 PM66 °FSunny.8 mph26%30.30 "Hg10 mi
1:00 PM63 °FPassing clouds.10 mph34%30.30 "HgN/A
12:00 PM61 °FPassing clouds.10 mph34%30.36 "HgN/A
11:00 AM57 °FPassing clouds.7 mph33%30.39 "HgN/A
10:00 AM50 °FSunny.5 mph30%30.42 "Hg10 mi
9:00 AM43 °FSunny.5 mph31%30.39 "Hg10 mi
Weather by CustomWeather, © 2014

See weather overviewHow to use our weather pages